De Queen, AR

1:31 PM CDT on October 21, 2019 (GMT -0500)
Helms Sevier County

Weather History for KDEQ - September, 2019

Change the Weather History Date:

Friday, September 20, 2019

  Actual Average Record
Temperature  
Mean Temperature 74 °F 72 °F  
Max Temperature 77 °F 85 °F 101 °F (1954)
Min Temperature 70 °F 59 °F 40 °F (1981)
Degree Days  
Heating Degree Days 0 0  
Month to date heating degree days 0 0  
Since 1 July heating degree days 0 0  
Cooling Degree Days 8 7  
Month to date cooling degree days 347 218  
Year to date cooling degree days 2065 1810  
Growing Degree Days 24 (Base 50)    
Moisture  
Dew Point 68 °F    
Average Humidity 87    
Maximum Humidity 93    
Minimum Humidity 69    
Precipitation  
Precipitation 1.61 in 0.12 in 4.27 in (2013)
Month to date precipitation 1.64 2.42  
Year to date precipitation 39.80 34.01  
Snow  
Snow 0.00 in - - ()
Month to date snowfall 0.0  
Since 1 July snowfall 0.0  
Since 1 September snowfall 0.0  
Snow Depth 0.00 in    
Sea Level Pressure  
Sea Level Pressure 30.01 in    
Wind  
Wind Speed 5 mph ()    
Max Wind Speed 14 mph    
Max Gust Speed 18 mph    
Visibility 6.3 miles    
Events Rain    
T = Trace of Precipitation, MM = Missing Value Source: Averaged Metar Reports

Daily Weather History Graph

Daily Weather History Graph

Search for Another Location

Airport or City:

Astronomy

Sep. 20, 2019 Rise Set
Actual Time 7:04 AM CDT 7:17 PM CDT
Civil Twilight 6:39 AM CDT 7:42 PM CDT
Nautical Twilight 6:09 AM CDT 8:11 PM CDT
Astronomical Twilight 5:40 AM CDT 8:41 PM CDT
Moon 11:23 PM CDT (9/20) 12:54 PM CDT (9/20)
Length of Visible Light 13h 03m
Length of Day
12h 13m
Waning Gibbous, 65% of the Moon is Illuminated
Sep 20
Waning Gibbous
Sep 21
Last Quarter
Sep 28
New
Oct 5
First Quarter
Oct 13
Full

Hourly Weather History & Observations

Time (CDT) Temp. Dew Point Humidity Pressure Visibility Wind Dir Wind Speed Gust Speed Precip Events Conditions
12:53 AM 75.9 °F 64.9 °F 69% 29.96 in 10.0 mi SE 3.5 mph - N/A   Overcast
1:53 AM 75.9 °F 64.9 °F 69% 29.96 in 10.0 mi SSE 6.9 mph - N/A   Overcast
2:53 AM 75.9 °F 64.9 °F 69% 29.95 in 10.0 mi SE 4.6 mph - N/A   Overcast
3:53 AM 75.0 °F 66.0 °F 73% 29.95 in 10.0 mi Variable 5.8 mph - 0.00 in   Overcast
4:15 AM 75.0 °F 66.0 °F 73% 29.97 in 10.0 mi SE 8.1 mph - 0.00 in Rain Light Rain
4:53 AM 72.0 °F 68.0 °F 87% 29.97 in 5.0 mi SE 5.8 mph - 0.02 in Rain Rain
5:07 AM 72.0 °F 68.0 °F 87% 29.99 in 2.0 mi Variable 4.6 mph - 0.08 in Rain Heavy Rain
5:22 AM 72.0 °F 69.1 °F 91% 29.99 in 3.0 mi ESE 3.5 mph - 0.12 in Rain Heavy Rain
5:30 AM 71.1 °F 69.1 °F 93% 29.99 in 2.5 mi ESE 4.6 mph - 0.17 in Rain Heavy Rain
5:39 AM 71.1 °F 68.0 °F 90% 29.99 in 3.0 mi ESE 5.8 mph - 0.20 in Rain Heavy Rain
5:44 AM 72.0 °F 69.1 °F 91% 29.99 in 3.0 mi East 4.6 mph - 0.20 in Rain Heavy Rain
5:49 AM 71.6 °F 68.0 °F 88% 29.99 in 4.0 mi ENE 3.5 mph - 0.20 in Rain Rain
5:53 AM 71.1 °F 68.0 °F 90% 29.98 in 5.0 mi Calm Calm - 0.20 in Rain Light Rain
6:21 AM 72.0 °F 68.0 °F 87% 30.00 in 2.5 mi SE 5.8 mph - 0.09 in Rain Heavy Rain
6:33 AM 71.1 °F 68.0 °F 90% 30.00 in 2.5 mi ESE 6.9 mph - 0.16 in Rain Heavy Rain
6:38 AM 71.1 °F 68.0 °F 90% 30.00 in 1.8 mi SE 8.1 mph - 0.26 in Rain Heavy Rain
6:48 AM 71.6 °F 68.0 °F 88% 30.00 in 1.5 mi ESE 6.9 mph - 0.42 in Rain Heavy Rain
6:53 AM 71.1 °F 68.0 °F 90% 29.99 in 1.8 mi SE 5.8 mph - 0.45 in Rain Heavy Rain
7:01 AM 71.1 °F 68.0 °F 90% 30.00 in 2.0 mi ESE 8.1 mph - 0.07 in Rain Heavy Rain
7:53 AM 71.1 °F 66.9 °F 87% 29.99 in 6.0 mi ESE 8.1 mph - 0.10 in Rain Rain
8:05 AM 71.1 °F 68.0 °F 90% 30.01 in 5.0 mi ESE 6.9 mph - 0.01 in Rain Rain
8:53 AM 71.1 °F 66.9 °F 87% 30.02 in 6.0 mi Variable 5.8 mph - 0.09 in Rain Rain
9:05 AM 71.1 °F 66.9 °F 87% 30.05 in 7.0 mi SE 3.5 mph - N/A Rain Rain
9:53 AM 71.1 °F 66.9 °F 87% 30.04 in 4.0 mi WSW 3.5 mph - N/A Rain Heavy Rain
10:00 AM 70.0 °F 66.9 °F 90% 30.05 in 2.5 mi Calm Calm - 0.01 in Rain Heavy Rain
10:04 AM 71.1 °F 68.0 °F 90% 30.05 in 3.0 mi Calm Calm - 0.02 in Rain Heavy Rain
10:26 AM 71.1 °F 68.0 °F 90% 30.06 in 7.0 mi East 4.6 mph - 0.03 in Rain Light Rain
10:35 AM 71.1 °F 68.0 °F 90% 30.06 in 7.0 mi ESE 6.9 mph - 0.03 in Rain Rain
10:45 AM 71.1 °F 68.0 °F 90% 30.05 in 10.0 mi ESE 9.2 mph - 0.03 in Rain Light Rain
10:53 AM 71.1 °F 68.0 °F 90% 30.04 in 10.0 mi ESE 9.2 mph - 0.03 in Rain Light Rain
11:53 AM 72.0 °F 68.0 °F 87% 30.06 in 4.0 mi West 3.5 mph - N/A Rain Rain
12:53 PM 72.0 °F 69.1 °F 91% 30.06 in 4.0 mi Calm Calm - N/A Rain Heavy Rain
1:19 PM 72.0 °F 69.1 °F 91% 30.06 in 2.5 mi ENE 4.6 mph - N/A Rain Heavy Rain
1:25 PM 72.0 °F 69.1 °F 91% 30.05 in 3.0 mi ENE 4.6 mph - N/A Rain Rain
1:53 PM 72.0 °F 69.1 °F 91% 30.03 in 9.0 mi East 5.8 mph - N/A Rain Light Rain
2:41 PM 73.0 °F 70.0 °F 90% 30.02 in 8.0 mi ENE 5.8 mph - 0.00 in Rain Light Rain
2:53 PM 73.0 °F 69.1 °F 87% 30.01 in 8.0 mi ESE 8.1 mph - 0.00 in Rain Light Rain
3:02 PM 73.0 °F 70.0 °F 90% 30.01 in 10.0 mi East 6.9 mph - 0.00 in Rain Light Rain
3:53 PM 73.9 °F 71.1 °F 91% 30.00 in 10.0 mi East 5.8 mph - 0.00 in   Overcast
4:53 PM 75.0 °F 71.1 °F 87% 30.00 in 10.0 mi East 6.9 mph - N/A   Overcast
5:04 PM 75.0 °F 71.1 °F 87% 30.01 in 10.0 mi East 6.9 mph - N/A   Overcast
5:53 PM 75.9 °F 72.0 °F 87% 30.00 in 10.0 mi East 4.6 mph - N/A   Mostly Cloudy
6:53 PM 75.9 °F 72.0 °F 87% 30.01 in 9.0 mi East 4.6 mph - N/A   Mostly Cloudy
7:53 PM 75.9 °F 72.0 °F 87% 30.01 in 8.0 mi ESE 4.6 mph - N/A   Clear
8:53 PM 77.0 °F 71.1 °F 82% 30.02 in 10.0 mi Variable 4.6 mph - N/A   Partly Cloudy
9:53 PM 75.9 °F 68.0 °F 76% 30.04 in 10.0 mi ESE 4.6 mph - N/A   Clear
10:53 PM 75.0 °F 69.1 °F 82% 30.05 in 10.0 mi ESE 5.8 mph - N/A   Clear
11:53 PM 73.9 °F 69.1 °F 85% 30.05 in 10.0 mi East 3.5 mph - N/A   Partly Cloudy